Tracking 19717 objects as of 25-Jun-2019
HD Live streaming from Space Station
objects crossing your sky now

CZ-3 DEB

Track CZ-3 DEB now!


NORAD ID: 29445
Int'l Code: 1984-035D
Perigee: 460.4 km
Apogee: 32,763.9 km
Inclination: 30.2 °
Period: 577.9 minutes
Semi major axis: 22983 km
RCS: 0.1344 m2 (medium)
Launch date: April 8, 1984
Source: People's Republic of China (PRC)
Launch site: Xichang Space Center, China (XSC)

Note: This is SATELLITE DEBRIS
aabbcc
Your satellite tracking list
Your tracking list is empty




NASA's NSSDC Master Catalog

Two Line Element Set (TLE):
1 29445U 84035D   19176.15371797  .00000672  00000-0  27694-2 0  9993
2 29445  30.1698 115.7607 7027647  96.3191 340.8207  2.49165811126518
Source of the keplerian elements: AFSPC